OH2TH Weather Reports


time (UTC)temp
C
wind
direction
speed
KPH
gust
KPH
rain 1hr
cm
rain 24hr
cm
rain mn
cm
humidity
%
barometer
mb
20260507074502 12 140 0.0 0.0 0.00 0.00 0.00 28 101.0
20260507073002 12 234 0.0 0.0 0.00 0.00 0.00 28 101.0
20260507071502 11 203 0.0 0.0 0.00 0.00 0.00 28 101.0
20260507070003 11 211 0.0 0.0 0.00 0.00 0.00 29 101.0
20260507064502 11 323 0.0 0.0 0.00 0.00 0.00 32 101.0
20260507063001 10 287 0.0 0.0 0.00 0.00 0.00 34 101.0
20260507061502 8 320 0.0 0.0 0.00 0.00 0.00 34 101.0
20260507060001 8 67 0.0 0.0 0.00 0.00 0.00 35 101.0
20260507054501 7 311 0.0 0.0 0.00 0.00 0.00 37 101.0
20260507053000 6 33 0.0 0.0 0.00 0.00 0.00 40 101.0
20260507051500 6 142 0.0 0.0 0.00 0.00 0.00 46 101.0
20260507050005 5 218 0.0 0.0 0.00 0.00 0.00 51 101.0
20260507044504 2 173 0.0 0.0 0.00 0.00 0.00 56 101.0
20260507043003 2 124 0.0 0.0 0.00 0.00 0.00 57 101.0
20260507041503 2 142 0.0 0.0 0.00 0.00 0.00 60 101.0
20260507040002 1 230 0.0 0.0 0.00 0.00 0.00 65 101.0
20260507034501 -17 218 0.0 0.0 0.00 0.00 0.00 65 101.0
20260507033001 -17 135 0.0 0.0 0.00 0.00 0.00 66 101.0
20260507031504 0 124 0.0 0.0 0.00 0.00 0.00 72 101.0
20260507030004 0 124 0.0 0.0 0.00 0.00 0.00 72 101.0
20260507024503 0 122 0.0 0.0 0.00 0.00 0.00 73 101.0
20260507023002 0 129 0.0 0.0 0.00 0.00 0.00 73 101.0
20260507021501 0 309 0.0 0.0 0.00 0.00 0.00 74 101.0
20260507020000 0 50 0.0 0.0 0.00 0.00 0.00 75 101.0
20260507014504 0 224 0.0 0.0 0.00 0.00 0.00 74 101.0
20260507013003 0 235 0.0 0.0 0.00 0.00 0.00 76 101.0
20260507011503 0 336 0.0 0.0 0.00 0.00 0.00 78 101.0
20260507010002 0 157 0.0 0.0 0.00 0.00 0.00 77 101.0
20260507004501 0 145 0.0 0.0 0.00 0.00 0.00 79 101.0
20260507003005 0 335 0.0 0.0 0.00 0.00 0.00 77 101.0
20260507001504 -17 148 0.0 0.0 0.00 0.00 0.00 78 101.0
20260507000004 0 124 0.0 0.0 0.00 0.00 0.00 81 101.0
20260506234503 0 240 0.0 0.0 0.00 0.00 0.00 79 101.0
20260506233002 0 157 0.0 0.0 0.00 0.00 0.00 80 101.0
20260506231501 1 50 0.0 0.0 0.00 0.00 0.00 81 101.0
20260506230005 1 156 0.0 0.0 0.00 0.00 0.00 79 101.0
20260506224504 1 124 0.0 0.0 0.00 0.00 0.00 83 101.0
20260506223003 1 293 0.0 0.0 0.00 0.00 0.00 80 101.0
20260506221502 2 147 0.0 0.0 0.00 0.00 0.00 78 101.0
20260506220001 2 173 0.0 0.0 0.00 0.00 0.00 80 101.0
20260506214501 2 230 0.0 0.0 0.00 0.00 0.00 77 101.0
20260506213004 2 142 0.0 0.0 0.00 0.00 0.00 76 101.0
20260506211504 3 322 0.0 0.0 0.00 0.00 0.00 76 101.0
20260506210003 3 142 0.0 0.0 0.00 0.00 0.00 75 101.0
20260506204502 3 217 0.0 0.0 0.00 0.00 0.00 72 101.0
20260506203001 3 322 0.0 0.0 0.00 0.00 0.00 72 101.0
20260506201500 3 141 0.0 0.0 0.00 0.00 0.00 72 101.0
20260506200004 3 66 0.0 0.0 0.00 0.00 0.00 69 101.0
20260506194503 5 44 0.0 0.0 0.00 0.00 0.00 66 101.0
20260506193003 5 192 0.0 0.0 0.00 0.00 0.00 64 101.0
20260506191502 6 124 0.0 0.0 0.00 0.00 0.00 61 101.0
20260506190002 7 202 0.0 0.0 0.00 0.00 0.00 60 101.0
20260506184501 7 29 0.0 0.0 0.00 0.00 0.00 58 101.0
20260506183005 8 269 0.0 0.0 0.00 0.00 0.00 55 101.0
20260506181504 8 62 0.0 0.0 0.00 0.00 0.00 50 101.0
20260506180004 8 322 0.0 0.0 0.00 0.00 0.00 46 101.0
20260506174503 8 44 0.0 0.0 0.00 0.00 0.00 44 101.0
20260506173003 10 200 0.0 0.0 0.00 0.00 0.00 43 101.0
20260506171502 10 214 0.0 0.0 0.00 0.00 0.00 42 101.0
20260506170002 10 162 0.0 0.0 0.00 0.00 0.00 41 101.0
20260506164502 10 135 0.0 0.0 0.00 0.00 0.00 42 101.0
20260506163002 10 152 0.0 0.0 0.00 0.00 0.00 41 101.0
20260506161502 10 289 0.0 0.0 0.00 0.00 0.00 41 101.0
20260506160002 10 132 0.0 0.0 0.00 0.00 0.00 41 101.0
20260506154502 10 206 0.0 0.0 0.00 0.00 0.00 41 101.0
20260506153001 10 160 0.0 0.0 0.00 0.00 0.00 39 101.0
20260506151501 10 171 0.0 0.0 0.00 0.00 0.00 39 101.0
20260506150002 10 240 0.0 0.0 0.00 0.00 0.00 39 101.0
20260506144501 10 177 0.0 0.0 0.00 0.00 0.00 40 101.0
20260506143001 11 152 0.0 0.0 0.00 0.00 0.00 39 101.0
20260506141501 11 116 0.0 0.0 0.00 0.00 0.00 35 101.0
20260506140001 11 168 0.0 0.0 0.00 0.00 0.00 38 101.0
20260506134501 11 187 0.0 0.0 0.00 0.00 0.00 36 101.0
20260506133001 11 221 0.0 0.0 0.00 0.00 0.00 38 101.0
20260506131500 11 162 0.0 0.0 0.00 0.00 0.00 37 101.0
20260506130000 11 172 0.0 0.0 0.00 0.00 0.00 37 101.0
20260506124505 11 117 0.0 0.0 0.00 0.00 0.00 39 101.0
20260506123005 11 17 0.0 0.0 0.00 0.00 0.00 39 101.0
20260506121504 11 123 0.0 0.0 0.00 0.00 0.00 37 101.0
20260506120005 10 155 0.0 0.0 0.00 0.00 0.00 39 101.0
20260506114504 11 133 0.0 0.0 0.00 0.00 0.00 39 101.0
20260506113004 12 215 0.0 0.0 0.00 0.00 0.00 35 101.0
20260506111504 12 217 0.0 0.0 0.00 0.00 0.00 32 101.0
20260506110004 12 170 0.0 0.0 0.00 0.00 0.00 25 101.0
20260506104504 12 355 0.0 0.0 0.00 0.00 0.00 25 101.0
20260506103004 12 126 0.0 0.0 0.00 0.00 0.00 26 101.0
20260506101503 12 312 0.0 0.0 0.00 0.00 0.00 28 101.0
20260506100004 12 67 0.0 0.0 0.00 0.00 0.00 27 101.0
20260506094503 11 104 0.0 0.0 0.00 0.00 0.00 33 101.0
20260506093003 11 141 0.0 0.0 0.00 0.00 0.00 30 101.0
20260506091503 11 319 0.0 0.0 0.00 0.00 0.00 33 101.0
20260506090003 11 70 0.0 0.0 0.00 0.00 0.00 31 101.0
20260506084502 12 42 0.0 0.0 0.00 0.00 0.00 31 101.0
20260506083002 12 319 0.0 0.0 0.00 0.00 0.00 30 101.0
20260506081502 12 357 0.0 0.0 0.00 0.00 0.00 29 101.0